Total_Precipitation_Accumulation
1.06 0.90 0.80 0.72 0.63 0.53 0.44 0.45 0.48 0.41 0.40 0.37 0.29 0.24 0.25 0.20 0.17 0.15 0.15 0.15 0.14 0.18 0.24 0.29 0.29 0.30 0.34 0.39 0.44 0.46 0.42 0.38 0.36 0.36 0.35 0.33 0.31 0.31 0.34 0.36 0.36 0.36 0.38
1.16 1.05 0.85 0.73 0.67 0.58 0.48 0.42 0.43 0.45 0.42 0.40 0.35 0.30 0.29 0.26 0.21 0.19 0.18 0.18 0.18 0.18 0.21 0.23 0.28 0.36 0.45 0.53 0.58 0.56 0.51 0.46 0.43 0.43 0.43 0.41 0.38 0.37 0.37 0.38 0.38 0.39 0.41
1.19 1.14 0.96 0.76 0.68 0.66 0.61 0.53 0.51 0.50 0.45 0.39 0.34 0.32 0.32 0.29 0.24 0.22 0.21 0.20 0.18 0.17 0.20 0.22 0.24 0.32 0.45 0.56 0.64 0.67 0.62 0.55 0.51 0.49 0.47 0.46 0.43 0.43 0.45 0.46 0.45 0.43 0.43
1.32 1.27 1.15 0.93 0.89 0.88 0.81 0.69 0.61 0.55 0.47 0.43 0.37 0.36 0.34 0.32 0.26 0.24 0.23 0.22 0.19 0.17 0.20 0.23 0.25 0.28 0.37 0.48 0.61 0.73 0.74 0.69 0.63 0.56 0.50 0.48 0.47 0.48 0.51 0.53 0.54 0.51 0.51
1.36 1.29 1.20 1.14 1.13 1.06 0.96 0.83 0.72 0.64 0.53 0.49 0.45 0.42 0.42 0.40 0.33 0.29 0.28 0.27 0.25 0.23 0.23 0.25 0.29 0.28 0.28 0.32 0.45 0.61 0.71 0.73 0.66 0.57 0.53 0.50 0.49 0.50 0.53 0.54 0.53 0.53 0.54
1.43 1.33 1.23 1.23 1.28 1.22 1.09 0.99 0.85 0.74 0.66 0.61 0.59 0.49 0.46 0.47 0.41 0.33 0.30 0.28 0.27 0.27 0.26 0.25 0.26 0.26 0.25 0.26 0.30 0.41 0.56 0.67 0.67 0.61 0.57 0.54 0.54 0.56 0.59 0.61 0.60 0.57 0.57
1.71 1.57 1.35 1.33 1.36 1.26 1.15 1.11 1.07 0.97 0.85 0.78 0.73 0.59 0.50 0.44 0.41 0.33 0.28 0.27 0.25 0.26 0.26 0.27 0.26 0.25 0.23 0.23 0.26 0.29 0.37 0.54 0.67 0.70 0.66 0.62 0.62 0.64 0.69 0.74 0.75 0.73 0.73
1.71 1.68 1.63 1.54 1.53 1.47 1.39 1.28 1.24 1.18 1.06 0.99 0.92 0.84 0.64 0.50 0.40 0.34 0.30 0.28 0.26 0.27 0.27 0.27 0.27 0.27 0.25 0.23 0.23 0.24 0.28 0.41 0.58 0.72 0.75 0.74 0.73 0.76 0.82 0.89 0.91 0.89 0.90
1.77 1.67 1.69 1.71 1.69 1.63 1.51 1.44 1.37 1.32 1.28 1.19 1.10 1.12 0.87 0.61 0.46 0.41 0.36 0.32 0.30 0.29 0.30 0.31 0.30 0.30 0.29 0.28 0.26 0.25 0.27 0.30 0.44 0.67 0.85 0.90 0.90 0.91 0.97 1.04 1.09 1.11 1.09
1.81 1.73 1.68 1.70 1.74 1.68 1.60 1.62 1.61 1.44 1.42 1.38 1.31 1.17 1.00 0.80 0.71 0.56 0.45 0.42 0.39 0.35 0.34 0.35 0.33 0.32 0.32 0.31 0.32 0.33 0.34 0.35 0.43 0.64 0.88 1.02 1.06 1.11 1.23 1.32 1.39 1.37 1.29
1.73 1.67 1.64 1.66 1.65 1.65 1.62 1.65 1.69 1.66 1.55 1.48 1.42 1.35 1.29 1.11 0.94 0.86 0.68 0.55 0.53 0.47 0.44 0.44 0.43 0.42 0.39 0.39 0.38 0.41 0.46 0.48 0.54 0.67 0.86 1.05 1.16 1.26 1.38 1.49 1.57 1.60 1.52
1.59 1.53 1.49 1.52 1.55 1.55 1.54 1.58 1.67 1.73 1.71 1.57 1.44 1.32 1.28 1.21 1.07 1.03 0.92 0.72 0.64 0.55 0.52 0.49 0.47 0.49 0.53 0.55 0.57 0.66 0.65 0.66 0.71 0.77 0.90 1.06 1.19 1.29 1.41 1.55 1.65 1.70 1.69
1.50 1.44 1.40 1.42 1.46 1.48 1.53 1.62 1.66 1.67 1.71 1.66 1.58 1.47 1.38 1.27 1.18 1.18 1.14 0.96 0.81 0.66 0.60 0.57 0.54 0.53 0.57 0.64 0.70 0.85 0.81 0.84 0.86 0.90 1.01 1.16 1.21 1.22 1.26 1.36 1.52 1.62 1.67
1.34 1.37 1.42 1.46 1.48 1.50 1.50 1.53 1.52 1.51 1.57 1.57 1.53 1.48 1.40 1.31 1.31 1.32 1.30 1.33 1.23 0.98 0.84 0.75 0.69 0.69 0.70 0.75 0.86 0.96 0.86 0.94 0.90 0.89 0.98 1.07 1.06 1.04 1.03 1.11 1.30 1.48 1.56
1.24 1.26 1.33 1.38 1.39 1.40 1.39 1.41 1.39 1.35 1.39 1.44 1.45 1.43 1.37 1.26 1.25 1.27 1.28 1.35 1.45 1.30 0.99 0.77 0.73 0.72 0.77 0.79 0.89 0.86 0.80 0.96 0.96 0.89 0.89 0.89 0.87 0.85 0.83 0.85 0.94 1.10 1.21
1.03 1.06 1.14 1.21 1.23 1.22 1.21 1.24 1.25 1.23 1.25 1.24 1.26 1.32 1.33 1.25 1.21 1.21 1.25 1.29 1.37 1.42 1.20 0.81 0.70 0.70 0.75 0.78 0.87 0.78 0.73 0.88 0.86 0.84 0.80 0.77 0.75 0.73 0.71 0.71 0.74 0.82 0.92
0.93 0.96 0.99 1.05 1.07 1.07 1.08 1.08 1.07 1.08 1.10 1.09 1.10 1.12 1.14 1.17 1.22 1.21 1.23 1.27 1.31 1.37 1.34 0.99 0.79 0.78 0.83 0.84 0.83 0.77 0.70 0.68 0.68 0.78 0.74 0.70 0.67 0.65 0.64 0.63 0.64 0.67 0.70
0.83 0.82 0.84 0.87 0.89 0.88 0.89 0.92 0.93 0.93 0.95 0.95 0.95 0.99 1.00 1.03 1.08 1.12 1.18 1.24 1.27 1.28 1.30 1.13 0.90 0.81 0.79 0.77 0.75 0.73 0.68 0.62 0.57 0.68 0.67 0.64 0.62 0.59 0.57 0.56 0.58 0.62 0.63
0.85 0.77 0.74 0.75 0.75 0.75 0.76 0.77 0.79 0.80 0.82 0.84 0.85 0.87 0.89 0.95 1.00 1.01 1.04 1.07 1.09 1.11 1.15 1.12 0.94 0.78 0.72 0.68 0.69 0.66 0.61 0.57 0.52 0.56 0.58 0.58 0.58 0.58 0.58 0.57 0.58 0.58 0.57
0.78 0.74 0.69 0.66 0.65 0.67 0.71 0.72 0.72 0.73 0.74 0.76 0.79 0.83 0.86 0.89 0.90 0.91 0.95 0.96 0.96 0.97 0.99 1.02 0.96 0.85 0.78 0.73 0.75 0.73 0.68 0.62 0.57 0.52 0.57 0.57 0.58 0.58 0.54 0.51 0.50 0.51 0.52
0.67 0.66 0.65 0.64 0.61 0.60 0.63 0.67 0.69 0.71 0.73 0.75 0.76 0.79 0.83 0.92 0.95 0.92 0.88 0.86 0.86 0.91 0.96 1.03 1.00 0.86 0.74 0.70 0.70 0.66 0.66 0.66 0.65 0.60 0.59 0.53 0.48 0.43 0.41 0.43 0.46 0.49 0.53
0.58 0.62 0.65 0.66 0.67 0.69 0.83 0.80 0.73 0.73 0.76 0.76 0.74 0.72 0.72 0.78 0.78 0.80 0.79 0.77 0.81 0.88 0.99 1.04 0.94 0.78 0.62 0.56 0.56 0.61 0.68 0.74 0.68 0.52 0.52 0.51 0.47 0.46 0.41 0.38 0.47 0.50 0.51
0.69 0.73 0.77 0.80 0.81 0.87 0.95 0.85 0.80 0.72 0.73 0.74 0.71 0.66 0.62 0.60 0.62 0.54 0.59 0.63 0.65 0.74 0.77 0.70 0.64 0.56 0.52 0.52 0.62 0.71 0.71 0.70 0.58 0.45 0.51 0.56 0.49 0.47 0.41 0.42 0.48 0.45 0.45
0.94 0.96 0.99 1.00 1.00 0.99 0.97 0.85 0.80 0.69 0.66 0.62 0.56 0.51 0.47 0.44 0.42 0.44 0.46 0.53 0.51 0.50 0.50 0.47 0.45 0.43 0.43 0.47 0.58 0.71 0.74 0.73 0.60 0.49 0.49 0.53 0.44 0.41 0.37 0.38 0.46 0.45 0.45
1.07 1.02 0.99 0.96 0.92 0.87 0.83 0.73 0.63 0.53 0.52 0.49 0.45 0.41 0.40 0.37 0.44 0.51 0.50 0.51 0.42 0.36 0.40 0.45 0.48 0.48 0.50 0.51 0.53 0.65 0.77 0.85 0.75 0.51 0.42 0.45 0.39 0.37 0.37 0.36 0.39 0.45 0.44
0.84 0.79 0.74 0.70 0.67 0.62 0.61 0.55 0.52 0.43 0.39 0.36 0.36 0.37 0.42 0.41 0.48 0.55 0.51 0.46 0.40 0.34 0.35 0.40 0.44 0.46 0.44 0.47 0.54 0.54 0.69 0.96 0.86 0.62 0.35 0.41 0.44 0.51 0.65 0.40 0.33 0.35 0.39